{"data":{"norad_id":54252,"intl_designator":"2022-155B","name":"JILIN-1 GAOFEN 03D51","alt_names":[],"object_type":"PAYLOAD","status":"ACTIVE","operator":null,"country":"PRC","launch_date":"2022-11-16","launch_site_code":"JSC","launch_vehicle":null,"mission":null,"orbit_class":"UNKNOWN","rcs_meters":null,"size_class":null,"mass_kg":null,"dimensions":null,"purposes":[],"wikipedia_slug":null,"has_3d_model":false,"image_url":null,"decayed_at":null,"tle_current":{"epoch":"2026-09-21T23:05:04.513056Z","epoch_age_seconds":35994,"freshness":"FRESH","line1":"1 54252U 22155B   26264.96185779  .00061737  00000+0  45635-3 0  9994","line2":"2 54252  97.6335  58.0422 0002522 344.6905  15.4281 15.72784681214902","mean_motion":15.72784681,"eccentricity":0.0002522,"inclination_deg":97.6335,"raan_deg":58.0422,"arg_perigee_deg":344.6905,"mean_anomaly_deg":15.4281,"bstar":0.00045635,"rev_number":21490,"period_min":91.5573515813,"perigee_km":349.24545337567,"apogee_km":352.63960108921,"semimajor_km":6729.0795272324,"source":"CELESTRAK","updated_at":"2026-09-22T09:00:25.143564Z"}}}